Weather History for Acapulco, Mexico

Change the Weather History Date:

Wednesday, December 5, 2012

  Actual Average Record
Temperature  
Mean Temperature 82 °F -  
Max Temperature 90 °F 89 °F 95 °F (2014)
Min Temperature 73 °F 71 °F 64 °F (1999)
Cooling Degree Days 16    
Growing Degree Days 32 (Base 50)    
Moisture  
Dew Point 73 °F    
Average Humidity 74    
Maximum Humidity 92    
Minimum Humidity 44    
Precipitation  
Precipitation 0.00 in 0.02 in - ()
Sea Level Pressure  
Sea Level Pressure 29.93 in    
Wind  
Wind Speed 1 mph ()    
Max Wind Speed 12 mph    
Max Gust Speed -    
Visibility 7.4 miles    
Events      
Averages and records for this station are not official NWS values.
T = Trace of Precipitation, MM = Missing Value Source: Averaged Metar Reports

Daily Weather History Graph

Daily Weather History Graph

Search for Another Location

Airport:

Trip Planner

Search our weather history database for the weather conditions in past years. The results will help you decide how hot, cold, wet, or windy it might be!

Date:

Astronomy

Dec. 05, 2012 Rise Set
Actual Time 6:54 AM CST 6:05 PM CST
Civil Twilight 6:31 AM CST 6:28 PM CST
Nautical Twilight 6:04 AM CST 6:55 PM CST
Astronomical Twilight 5:37 AM CST 7:21 PM CST
Moon No Moon Rise 11:58 AM CST (12/5)
Length of Visible Light 11h 57m
Length of Day
11h 10m
Waning Gibbous, 59% of the Moon is Illuminated
Dec 5
Waning Gibbous
Dec 6
Last Quarter
Dec 13
New
Dec 19
First Quarter
Dec 28
Full

Hourly Weather History & Observations

Time (CST) Temp. Heat Index Dew Point Humidity Pressure Visibility Wind Dir Wind Speed Gust Speed Precip Events Conditions
12:42 AM 77.0 °F - 73.4 °F 89% 29.97 in 7.0 mi Calm Calm - N/A   Clear
1:43 AM 77.0 °F - 55.4 °F 47% 29.96 in 7.0 mi Calm Calm - N/A   Clear
2:45 AM 77.0 °F - 73.4 °F 89% 29.93 in 7.0 mi Calm Calm - N/A   Clear
2:50 AM 76 °F - 72 °F 85% 29.95 in 6 mi NW 2.2 mph - -   Scattered Clouds
3:45 AM 77.0 °F - 73.4 °F 89% 29.94 in 7.0 mi Calm Calm - N/A   Clear
4:43 AM 77.0 °F - 73.4 °F 89% 29.94 in 7.0 mi Calm Calm - N/A   Clear
5:45 AM 77.0 °F - 71.6 °F 83% 29.92 in 7.0 mi Calm Calm - N/A   Scattered Clouds
5:50 AM 75 °F - 72 °F 87% 29.94 in 6 mi West 2.2 mph - -   Scattered Clouds
6:43 AM 77.0 °F - 71.6 °F 83% 29.94 in 7.0 mi Calm Calm - N/A   Scattered Clouds
8:45 AM 80 °F - 74 °F 76% 29.99 in 11 mi NW 2.2 mph - -   Scattered Clouds
8:45 AM 78.8 °F - 73.4 °F 83% 29.93 in 7.0 mi Calm Calm - N/A   Scattered Clouds
9:45 AM 82.4 °F 88.2 °F 73.4 °F 74% 29.98 in 7.0 mi Calm Calm - N/A   Clear
10:42 AM 84.2 °F 92.3 °F 75.2 °F 74% 29.98 in 7.0 mi Calm Calm - N/A   Clear
11:45 AM 89 °F - 70 °F 44% 29.94 in 11 mi SSW 2.2 mph - -   Clear
11:47 AM 87.8 °F 95.6 °F 73.4 °F 62% 29.96 in 7.0 mi Calm Calm - N/A   Clear
12:43 PM 89.6 °F 98.2 °F 73.4 °F 59% 29.94 in 7.0 mi WSW 5.8 mph - N/A   Clear
1:42 PM 89.6 °F 98.2 °F 73.4 °F 59% 29.90 in 7.0 mi WSW 9.2 mph - N/A   Clear
2:45 PM 87 °F - 74 °F 59% 29.88 in 11 mi WSW 2.2 mph - -   Clear
2:47 PM 89.6 °F 98.2 °F 73.4 °F 59% 29.90 in 7.0 mi WSW 11.5 mph - N/A   Scattered Clouds
3:43 PM 89.6 °F 98.2 °F 73.4 °F 59% 29.87 in 7.0 mi WSW 9.2 mph - N/A   Scattered Clouds
4:44 PM 87.8 °F 92.6 °F 69.8 °F 55% 29.87 in 7.0 mi West 8.1 mph - N/A   Scattered Clouds
5:45 PM 84 °F - 75 °F 67% 29.88 in 11 mi WSW 2.2 mph - -   Scattered Clouds
5:45 PM 87.8 °F 95.6 °F 73.4 °F 62% 29.87 in 7.0 mi WSW 4.6 mph - N/A   Scattered Clouds
6:42 PM 84.2 °F 92.3 °F 75.2 °F 74% 29.89 in 7.0 mi Calm Calm - N/A   Scattered Clouds
7:42 PM 84.2 °F 92.3 °F 75.2 °F 74% 29.90 in 7.0 mi Calm Calm - N/A   Scattered Clouds
8:45 PM 78 °F - 75 °F 87% 29.92 in 6 mi West 2.2 mph - -   Scattered Clouds
8:51 PM 82.4 °F 89.5 °F 75.2 °F 79% 29.92 in 7.0 mi Calm Calm - N/A   Scattered Clouds
9:42 PM 82.4 °F 89.5 °F 75.2 °F 79% 29.92 in 7.0 mi Calm Calm - N/A   Scattered Clouds
10:45 PM 82.4 °F 89.5 °F 75.2 °F 79% 29.92 in 7.0 mi Calm Calm - N/A   Partly Cloudy
11:45 PM 77 °F - 75 °F 92% 29.93 in 6 mi ENE 2.2 mph - -  
11:45 PM 80.6 °F 86.2 °F 75.2 °F 84% 29.94 in 7.0 mi Calm Calm - N/A   Partly Cloudy